Weather History for Hollywood, FL

Change the Weather History Date:

Tuesday, February 5, 2013

  Actual Average (KFLL) Record (KFLL)
Temperature  
Mean Temperature 66 °F 70 °F  
Max Temperature 78 °F 77 °F 89 °F (1985)
Min Temperature 55 °F 63 °F 31 °F (1958)
Degree Days  
Heating Degree Days 0 1  
Month to date heating degree days 5  
Since 1 July heating degree days 85  
Cooling Degree Days 2 6  
Month to date cooling degree days 30  
Year to date cooling degree days 200  
Growing Degree Days 16 (Base 50)    
Moisture  
Dew Point 57 °F    
Average Humidity 71    
Maximum Humidity 93    
Minimum Humidity 50    
Precipitation  
Precipitation 0.00 in 0.10 in 2.80 in (1964)
Month to date precipitation 0.54  
Year to date precipitation 4.17  
Snow  
Snow 0.00 in - - ()
Month to date snowfall  
Since 1 July snowfall  
Snow Depth -    
Sea Level Pressure  
Sea Level Pressure 30.07 in    
Wind  
Wind Speed 3 mph (SE)    
Max Wind Speed 10 mph    
Max Gust Speed -    
Visibility 10 miles    
Events      
T = Trace of Precipitation, MM = Missing Value Source: NWS Daily Summary

Daily Weather History Graph

Daily Weather History Graph

Search for Another Location

Airport:

Trip Planner

Search our weather history database for the weather conditions in past years. The results will help you decide how hot, cold, wet, or windy it might be!

Date:

Astronomy

Feb. 05, 2013 Rise Set
Actual Time 7:02 AM EST 6:07 PM EST
Civil Twilight 6:38 AM EST 6:31 PM EST
Nautical Twilight 6:11 AM EST 6:58 PM EST
Astronomical Twilight 5:44 AM EST 7:26 PM EST
Moon 2:33 AM EST (2/5) 1:34 PM EST (2/5)
Length of Visible Light 11h 52m
Length of Day
11h 04m
Waning Crescent, 27% of the Moon is Illuminated
Feb 5
Waning Crescent
Feb 10
New
Feb 17
First Quarter
Feb 25
Full
Mar 4
Last Quarter

Hourly Weather History & Observations

Time (EST) Temp. Dew Point Humidity Pressure Visibility Wind Dir Wind Speed Gust Speed Precip Events Conditions
12:53 AM 57.9 °F 50.0 °F 75% 30.09 in 10.0 mi Calm Calm - N/A   Clear
1:53 AM 57.9 °F 51.1 °F 78% 30.08 in 10.0 mi Calm Calm - N/A   Clear
2:53 AM 55.9 °F 52.0 °F 87% 30.07 in 10.0 mi Variable 3.5 mph - N/A   Clear
3:53 AM 55.9 °F 53.1 °F 90% 30.06 in 10.0 mi Calm Calm - N/A   Clear
4:53 AM 55.0 °F 53.1 °F 93% 30.06 in 10.0 mi Calm Calm - N/A   Scattered Clouds
5:53 AM 55.0 °F 53.1 °F 93% 30.07 in 10.0 mi Calm Calm - N/A   Scattered Clouds
7:53 AM 57.9 °F 55.9 °F 93% 30.09 in 10.0 mi Calm Calm - N/A   Clear
8:53 AM 69.1 °F 55.9 °F 63% 30.10 in 10.0 mi Calm Calm - N/A   Clear
9:53 AM 73.9 °F 55.0 °F 52% 30.11 in 10.0 mi Calm Calm - N/A   Unknown
10:53 AM 75.9 °F 57.0 °F 52% 30.10 in 10.0 mi SE 9.2 mph - N/A   Clear
11:53 AM 78.1 °F 57.9 °F 50% 30.09 in 10.0 mi Variable 5.8 mph - N/A   Mostly Cloudy
12:53 PM 77.0 °F 57.9 °F 52% 30.07 in 10.0 mi Variable 6.9 mph - N/A   Partly Cloudy
1:53 PM 75.9 °F 57.9 °F 54% 30.05 in 10.0 mi ESE 10.4 mph - N/A   Overcast
2:53 PM 75.9 °F 57.9 °F 54% 30.04 in 10.0 mi SSE 9.2 mph - N/A   Mostly Cloudy
3:53 PM 75.0 °F 57.9 °F 55% 30.03 in 10.0 mi SSE 10.4 mph - N/A   Overcast
4:53 PM 75.9 °F 60.1 °F 58% 30.03 in 10.0 mi SE 6.9 mph - N/A   Overcast
5:53 PM 73.0 °F 61.0 °F 66% 30.03 in 10.0 mi SE 8.1 mph - N/A   Scattered Clouds
6:53 PM 71.1 °F 61.0 °F 70% 30.04 in 10.0 mi SSE 5.8 mph - N/A   Scattered Clouds
7:53 PM 71.1 °F 62.1 °F 73% 30.06 in 10.0 mi SSE 3.5 mph - N/A   Overcast
8:53 PM 70.0 °F 62.1 °F 76% 30.06 in 10.0 mi SSE 3.5 mph - N/A   Partly Cloudy
9:53 PM 68.0 °F 62.1 °F 81% 30.07 in 10.0 mi Calm Calm - N/A   Clear
10:53 PM 66.0 °F 62.1 °F 87% 30.08 in 10.0 mi Calm Calm - N/A   Scattered Clouds
11:53 PM 64.9 °F 61.0 °F 87% 30.07 in 10.0 mi Calm Calm - N/A   Partly Cloudy